CW9987 Weather Reports


Display with metric or nautical units.
time (UTC)temp
F
wind
direction
speed
MPH
gust
MPH
rain 1hr
in
rain 24hr
in
rain mn
in
humidity
%
barometer
mb
20260503050056 40 183 1.0 4.0 0.00 0.00 0.00 54 1014.6
20260503044548 40 170 2.0 6.0 0.00 0.00 0.00 53 1014.6
20260503043042 41 178 2.0 5.0 0.00 0.00 0.00 53 1014.8
20260503041549 41 203 1.0 5.0 0.00 0.00 0.00 54 1014.9
20260503040100 41 228 2.0 6.0 0.00 0.00 0.00 54 1015.1
20260503034559 41 200 2.0 6.0 0.00 0.00 0.00 54 1015.2
20260503033046 41 217 1.0 5.0 0.00 0.00 0.00 54 1015.4
20260503031552 41 197 1.0 5.0 0.00 0.00 0.00 54 1015.4
20260503030116 41 237 2.0 5.0 0.00 0.00 0.00 54 1015.5
20260503024549 41 202 2.0 4.0 0.00 0.00 0.00 55 1015.6
20260503023049 41 231 3.0 7.0 0.00 0.00 0.00 57 1015.7
20260503021556 41 232 2.0 4.0 0.00 0.00 0.00 57 1015.8
20260503020050 41 218 2.0 4.0 0.00 0.00 0.00 57 1015.8
20260503014613 41 239 2.0 4.0 0.00 0.00 0.00 57 1015.8
20260503013053 42 224 1.0 3.0 0.00 0.00 0.00 55 1015.8
20260503011553 42 248 2.0 4.0 0.00 0.00 0.00 53 1015.9
20260503010103 44 236 2.0 7.0 0.00 0.00 0.00 51 1015.8
20260503004550 45 211 3.0 6.0 0.00 0.00 0.00 50 1015.9
20260503003053 45 259 3.0 6.0 0.00 0.00 0.00 46 1015.8
20260503001600 46 266 4.0 8.0 0.00 0.00 0.00 44 1015.7
20260503000110 47 271 5.0 10.0 0.00 0.00 0.00 43 1015.9
20260502234555 48 255 4.0 9.0 0.00 0.00 0.00 41 1016.0
20260502233050 48 254 5.0 10.0 0.00 0.00 0.00 40 1016.0
20260502231542 49 254 5.0 12.0 0.00 0.00 0.00 40 1016.1
20260502230050 49 269 7.0 12.0 0.00 0.00 0.00 38 1016.1
20260502224549 50 289 6.0 12.0 0.00 0.00 0.00 38 1016.2
20260502223049 50 252 8.0 13.0 0.00 0.00 0.00 35 1016.2
20260502221542 51 297 7.0 13.0 0.00 0.00 0.00 37 1016.3
20260502220051 51 290 6.0 14.0 0.00 0.00 0.00 36 1016.2
20260502214555 51 286 5.0 17.0 0.00 0.00 0.00 39 1016.3
20260502213049 51 257 6.0 15.0 0.00 0.00 0.00 40 1016.4
20260502211551 50 273 9.0 17.0 0.00 0.00 0.00 37 1016.4
20260502210047 50 280 9.0 16.0 0.00 0.00 0.00 38 1016.6
20260502204547 50 277 7.0 13.0 0.00 0.00 0.00 39 1016.6
20260502203105 50 264 9.0 19.0 0.00 0.00 0.00 41 1016.8
20260502201541 50 328 12.0 17.0 0.00 0.00 0.00 42 1017.1
20260502200047 50 286 9.0 17.0 0.00 0.00 0.00 42 1017.2
20260502194547 50 237 7.0 26.0 0.00 0.00 0.00 44 1017.3
20260502193046 49 306 8.0 15.0 0.00 0.00 0.00 44 1017.5
20260502191558 49 311 8.0 18.0 0.00 0.00 0.00 44 1017.5
20260502190054 49 284 12.0 20.0 0.00 0.00 0.00 45 1017.7
20260502184549 49 306 10.0 23.0 0.00 0.00 0.00 46 1017.7
20260502183048 49 301 9.0 23.0 0.00 0.00 0.00 46 1017.9
20260502181607 50 269 8.0 18.0 0.00 0.00 0.00 47 1017.9
20260502163049 48 295 5.0 14.0 0.00 0.00 0.00 56 1018.6
20260502161550 45 280 7.0 15.0 0.00 0.00 0.00 50 1018.7
20260502151602 43 280 3.0 8.0 0.00 0.00 0.00 53 1018.9
20260502123042 38 337 4.0 8.0 0.00 0.00 0.00 76 1019.2
20260502121550 38 330 3.0 8.0 0.00 0.00 0.00 78 1019.0
20260502114550 34 0 0.0 0.0 0.00 0.00 0.00 86 1019.0
20260502113042 30 0 0.0 0.0 0.00 0.00 0.00 89 1018.8
20260502111543 29 0 0.0 0.0 0.00 0.00 0.00 86 1018.9
20260502110046 29 0 0.0 0.0 0.00 0.00 0.00 85 1018.7
20260502104549 29 0 0.0 2.0 0.00 0.00 0.00 84 1018.7
20260502103045 30 0 0.0 2.0 0.00 0.00 0.00 83 1018.6
20260502101551 31 0 0.0 0.0 0.00 0.00 0.00 84 1018.6
20260502080103 36 304 1.0 2.0 0.00 0.00 0.00 71 1017.8
20260502070049 36 313 1.0 2.0 0.00 0.00 0.00 70 1018.0
20260502064558 35 333 1.0 2.0 0.00 0.00 0.00 71 1018.1
20260502063048 36 319 0.0 2.0 0.00 0.00 0.00 72 1018.2
20260502061547 36 319 0.0 2.0 0.00 0.00 0.00 70 1018.3
20260502060051 36 0 0.0 2.0 0.00 0.00 0.00 69 1018.2
20260502054555 36 0 0.0 2.0 0.00 0.00 0.00 68 1018.3
20260502053042 37 0 1.0 3.0 0.00 0.00 0.00 67 1018.3
20260502051546 37 325 0.0 3.0 0.00 0.00 0.00 66 1018.2